Regional Weather Roundup
Issued by NWS

Home | Current Version | Previous Version | Text Only | Print | Product List | Glossary On
Versions: 1 2 3 4 5 6 7 8 9 10 11 12 13 14 15 16 17 18 19 20 21 22 23 24 25 26 27 28 29 30 31 32 33 34 35 36 37 38 39 40 41 42 43 44 45 46 47 48 49 50
000
ASUS45 KPSR 050110
RWRAZ

ARIZONA HOURLY REGIONAL WEATHER ROUNDUP
NATIONAL WEATHER SERVICE PHOENIX AZ
600 PM MST FRI SEP 04 2015

NOTE: FAIR INDICATES FEW OR NO CLOUDS BELOW 12,000 FEET WITH NO
SIGNIFICANT WEATHER AND/OR OBSTRUCTIONS TO VISIBILITY.

AZZ001>003-036-050200-
NORTHWEST ARIZONA

CITY           SKY/WX    TMP DP  RH WIND       PRES   REMARKS
BULLHEAD CITY  MOSUNNY   99  48  18 S22G36    29.65S
KINGMAN        SUNNY     86  44  23 SW24G32   29.87F
$$

AZZ004>008-015-016-018-050200-
NORTH CENTRAL ARIZONA

CITY           SKY/WX    TMP DP  RH WIND       PRES   REMARKS
GRAND CANYON   PTCLDY    70  42  36 SW16G23   30.09R
WILLIAMS       PTCLDY    70  43  37 S18G26    30.16S
PRESCOTT       MOCLDY    77  50  38 SW12      30.02R
FLAGSTAFF      CLOUDY    55  53  93 N3        30.16F THUNDER
PAYSON         CLOUDY    75  52  43 S9G15     30.06S
PAGE           PTCLDY    82  44  26 S6        29.89R
$$

AZZ009>014-017-050200-
NORTHEAST ARIZONA

CITY           SKY/WX    TMP DP  RH WIND       PRES   REMARKS
WINSLOW        CLOUDY    75  55  49 S12       30.01R
SAINT JOHNS    CLOUDY    71  54  54 S7        30.09R
WINDOW ROCK    CLOUDY    64  54  69 S6        30.14R
SHOW LOW       CLOUDY    64  52  63 S13       30.15R
$$

AZZ023-050200-
GREATER PHOENIX AREA

CITY           SKY/WX    TMP DP  RH WIND       PRES   REMARKS
PHOENIX        CLOUDY    93  58  30 S12       29.76F
BUCKEYE        CLOUDY    81  66  61 S10       29.80R
GLENDALE       CLOUDY    91  55  29 SE10      29.79R
LUKE AFB       CLOUDY    87  59  38 SW9       29.77R
DEER VALLEY    CLOUDY    90  58  33 S7G20     29.78S
SCOTTSDALE     CLOUDY    91  58  32 SE8       29.80F
MESA-FALCON    CLOUDY    90  57  33 S14       29.80R
MESA-GATEWAY   CLOUDY    90  57  33 S12       29.83R
CHANDLER       CLOUDY    91  59  33 S12       29.80R
$$

AZZ027-028-050200-
SOUTHWEST MARICOPA COUNTY AND PINAL COUNTY

CITY           SKY/WX    TMP DP  RH WIND       PRES   REMARKS
CASA GRANDE    CLOUDY    88  63  42 SE14      29.81S
GILA BEND      PTSUNNY   88  64  45 S17       29.76R
$$

AZZ503-504-507>509-050200-
SOUTHEAST ARIZONA

CITY           SKY/WX    TMP DP  RH WIND       PRES   REMARKS
TUCSON         CLOUDY    78  63  59 S7        29.96R
DAVIS-MONTHAN  CLOUDY    77  65  66 SW8       29.95R
RYAN FIELD     CLEAR     81  66  61 SW5       29.94R
NOGALES        LGT RAIN  68  65  90 SE7       30.04S
SIERRA VISTA   LGT RAIN  65  63  92 S3        30.10S FOG
DOUGLAS        CLOUDY    68  65  90 N8        30.07R
SAFFORD        CLOUDY    76  62  62 S14       29.97R
$$

AZZ020-021-025-026-031-050200-
SOUTHWEST ARIZONA

CITY           SKY/WX    TMP DP  RH WIND       PRES   REMARKS
YUMA           SUNNY     98  51  20 S20       29.68S
$$

CAZ031-033-041-043-047-048-061-050200-
SOUTHERN CALIFORNIA

CITY           SKY/WX    TMP DP  RH WIND       PRES   REMARKS
DOWNTOWN L.A.  SUNNY     75  56  51 W6        29.83R
L.A. AIRPORT   MOSUNNY   72  57  59 W12       29.84S
SAN DIEGO      MOSUNNY   72  58  61 W9        29.86S
BURBANK        SUNNY     75  55  49 S9        29.83S
ONTARIO        SUNNY     78  53  41 W16       29.82S
RIVERSIDE      SUNNY     78  54  43 W14       29.81S
PALM SPRINGS   SUNNY     95  48  20 NW15      29.70S
EL CENTRO NAS  MOSUNNY  101  44  14 W18       29.65F
IMPERIAL       SUNNY     98  52  21 W8        29.63S
BLYTHE         SUNNY    100  52  19 S16       29.66S
NEEDLES        PTSUNNY   99  49  18 S20G25    29.68S
$$

NVZ020-UTZ003-050200-
SOUTHERN NEVADA-UTAH

CITY           SKY/WX    TMP DP  RH WIND       PRES   REMARKS
LAS VEGAS      MOSUNNY   93  40  15 S15G28    29.67S
SALT LAKE CITY MOCLDY    85  33  15 S21G36    29.71S
$$

NMZ009-TXZ055-050200-
NEW MEXICO-WEST TEXAS

CITY           SKY/WX    TMP DP  RH WIND       PRES   REMARKS
ALBUQUERQUE    CLOUDY    69  56  62 E3        30.12F
EL PASO        MOCLDY    88  50  27 NW7       29.95S
$$


........................KEY........................
SKY/WX - SKY CONDITION/WEATHER
TMP    - TEMPERATURE IN FAHRENHEIT
DP     - DEW POINT IN FAHRENHEIT
RH     - RELATIVE HUMIDITY IN PERCENT
WIND   - DIRECTION AND SPEED IN MILES PER HOUR (MPH)
VRB    - VARIABLE WIND DIRECTION
PRES   - MEAN SEA LEVEL PRESSURE IN INCHES OF MERCURY
         F - FALLING PRESSURE   R - RISING PRESSURE
         S - STEADY PRESSURE
VSB    - VISIBILITY IN MILES
HX     - HEAT INDEX IN FAHRENHEIT
WCI    - WIND CHILL INDEX IN FAHRENHEIT
TC     - TEMPERATURE IN CELSIUS WHICH IS ALSO KNOWN AS
         TEMPERATURE IN CENTIGRADE
AFB    - AIR FORCE BASE
         LUKE AFB IS LUKE AIR FORCE BASE
         DAVIS-MONTHAN IS DAVIS-MONTHAN AIR FORCE BASE
NAS    - NAVAL AIR STATION
         EL CENTRO NAS IS EL CENTRO NAVAL AIR STATION
N/A    - NOT AVAILABLE




USA.gov is the U.S. government's official web portal to all federal, state and local government web resources and services.